• Join FlightAware (Why Join?)
  • Login
  • US Flag 
Gobble Gobble! 
12:49PM EST


 

Airport Tracker/Info


-or-


 

Live Flight TrackerFlight Track Log ✈ ASQ5414 ✈ 30-Apr-2012 ✈ KATL - KHSV

Flight Track Log - Related Links

Times and Time Zones

All times are in EDT time to prevent confusion due to time zone crossing. See the ASQ5414 flight status page for this flight to view local times or setup timezone preferences in your user account.

Time Position Orientation Groundspeed Altitude Reporting Facility
EDT Latitude Longitude Course Direction KTS MPH feet Rate Location/Type
08:26AM 33.6500 -84.3667 54° Northeast 198 228 2,500  Level Atlanta TRACON
08:27AM 33.7000 -84.2833 360° North 284 327 4,600 2,400 Climbing Atlanta TRACON
08:28AM 33.7667 -84.2833 283° West 286 329 7,400 4,920 Climbing Atlanta TRACON
08:31AM 33.8081 -84.4939 271° West 290 334 22,000 1,800 Climbing Atlanta Center
08:32AM 33.8094 -84.6214 270° West 330 380 13,900 -3,300 Descending Atlanta Center
08:33AM 33.8092 -84.7239 268° West 348 400 15,500 1,620 Climbing Atlanta Center
08:34AM 33.8061 -84.8589 265° West 348 400 17,200 1,440 Climbing Atlanta Center
08:35AM 33.7969 -84.9786 262° West 364 419 18,400 1,260 Climbing Atlanta Center
08:36AM 33.7814 -85.1036 264° West 370 426 19,800 1,140 Climbing Atlanta Center
08:37AM 33.7697 -85.2308 280° West 370 426 20,700 900 Climbing Atlanta Center
08:38AM 33.7872 -85.3461 282° West 381 438 21,600 600 Climbing Atlanta Center
08:39AM 33.8108 -85.4789 281° West 398 458 22,000 180 Climbing Atlanta Center
08:40AM 33.8322 -85.6142 289° West 409 471 22,000  Level Atlanta Center
08:41AM 33.8700 -85.7450 297° West 414 476 22,000  Level Atlanta Center
08:42AM 33.9247 -85.8764 323° Northwest 398 458 22,000  Level Atlanta Center
08:43AM 34.0172 -85.9611 324° Northwest 403 464 22,000 -1,740 Level Atlanta Center
08:45AM 34.2306 -86.1467 325° Northwest 419 482 16,500 -2,520 Descending Memphis Center
08:46AM 34.3122 -86.2156 325° Northwest 419 482 13,900 -2,940 Descending Memphis Center
08:47AM 34.3981 -86.2894 325° Northwest 395 455 10,700 -2,400 Descending Memphis Center
08:48AM 34.4733 -86.3539 323° Northwest 367 422 9,200 -1,620 Descending Memphis Center
08:49AM 34.5400 -86.4139 326° Northwest 323 372 7,500 -1,800 Descending Memphis Center
08:50AM 34.6019 -86.4639 323° Northwest 290 334 5,700 -1,800 Descending Memphis Center
08:51AM 34.6600 -86.5169 313° West 276 318 4,000 -900 Descending Memphis Center
08:52AM 34.7100 -86.5828 306° West 265 305 4,000 -60 Level Memphis Center
08:53AM 34.7517 -86.6517 270° West 257 296 3,900 -540 Descending Memphis Center
08:54AM 34.7519 -86.7350 211° Southwest 224 258 3,000 -1,140 Descending Memphis Center
08:55AM 34.7153 -86.7619 188° South 157 181 1,700 -960 Descending Memphis Center
08:56AM 34.6758 -86.7686 210° Southwest 134 154 1,100 -480 Descending Memphis Center
08:57AM 34.6492 -86.7875 210° Southwest 128 147 800 -300 Descending Memphis Center